![]() |
EMODnet Physics ERDDAP
Easier access to scientific data |
log in|
Brought to you by EMODnet Physics |
| Dataset Title: | NDBC - Collection of dew point temperature (DEWT) TimeSeries - IN SITU MultiPointTimeSeriesObservation
|
| Institution: | NDBC (Dataset ID: TS_DEWT_NDBC) |
| Information: | Summary
| License
| FGDC
| ISO 19115
| Metadata
| Background
| Subset
| Data Access Form
| Make a graph
|
| Name | Last modified | Size | Description | |
|---|---|---|---|---|
| Parent Directory | - | - | ||
| RIXA2_TS_DEWT_012018.nc | 27-Oct-2024 19:41 | 682124 | ||
| RIXA2_TS_DEWT_012019.nc | 27-Oct-2024 19:41 | 1031416 | ||
| RIXA2_TS_DEWT_012020.nc | 27-Oct-2024 19:41 | 650748 | ||
| RIXA2_TS_DEWT_012021.nc | 27-Oct-2024 19:42 | 430412 | ||
| RIXA2_TS_DEWT_012022.nc | 27-Oct-2024 19:42 | 1271549 | ||
| RIXA2_TS_DEWT_012023.nc | 27-Oct-2024 19:42 | 1025251 | ||
| RIXA2_TS_DEWT_012024.nc | 27-Oct-2024 19:42 | 654004 | ||
| RIXA2_TS_DEWT_012025.nc | 07-Feb-2025 16:00 | 439502 | ||
| RIXA2_TS_DEWT_012026.nc | 02-Feb-2026 15:56 | 1330324 | ||
| RIXA2_TS_DEWT_022018.nc | 27-Oct-2024 19:42 | 457410 | ||
| RIXA2_TS_DEWT_022019.nc | 27-Oct-2024 19:42 | 1023390 | ||
| RIXA2_TS_DEWT_022020.nc | 27-Oct-2024 19:42 | 1118216 | ||
| RIXA2_TS_DEWT_022021.nc | 27-Oct-2024 19:42 | 420496 | ||
| RIXA2_TS_DEWT_022022.nc | 27-Oct-2024 19:42 | 985982 | ||
| RIXA2_TS_DEWT_022023.nc | 27-Oct-2024 19:42 | 1109956 | ||
| RIXA2_TS_DEWT_022024.nc | 16-Sep-2024 16:51 | 1267946 | ||
| RIXA2_TS_DEWT_022025.nc | 01-Mar-2025 05:15 | 675121 | ||
| RIXA2_TS_DEWT_022026.nc | 01-Mar-2026 17:24 | 1116735 | ||
| RIXA2_TS_DEWT_032018.nc | 27-Oct-2024 19:42 | 1001202 | ||
| RIXA2_TS_DEWT_032019.nc | 27-Oct-2024 19:42 | 1116643 | ||
| RIXA2_TS_DEWT_032020.nc | 27-Oct-2024 19:42 | 666532 | ||
| RIXA2_TS_DEWT_032021.nc | 27-Oct-2024 19:42 | 479201 | ||
| RIXA2_TS_DEWT_032022.nc | 27-Oct-2024 19:43 | 1120284 | ||
| RIXA2_TS_DEWT_032023.nc | 27-Oct-2024 19:43 | 1111591 | ||
| RIXA2_TS_DEWT_032025.nc | 02-Apr-2025 03:24 | 1267351 | ||
| RIXA2_TS_DEWT_032026.nc | 21-Mar-2026 19:57 | 1023320 | ||
| RIXA2_TS_DEWT_042018.nc | 27-Oct-2024 19:43 | 639696 | ||
| RIXA2_TS_DEWT_042019.nc | 27-Oct-2024 19:43 | 1267505 | ||
| RIXA2_TS_DEWT_042020.nc | 27-Oct-2024 19:43 | 1270595 | ||
| RIXA2_TS_DEWT_042021.nc | 27-Oct-2024 19:43 | 648694 | ||
| RIXA2_TS_DEWT_042022.nc | 27-Oct-2024 19:43 | 445037 | ||
| RIXA2_TS_DEWT_042023.nc | 27-Oct-2024 19:43 | 668969 | ||
| RIXA2_TS_DEWT_042025.nc | 01-May-2025 07:59 | 1007334 | ||
| RIXA2_TS_DEWT_052018.nc | 27-Oct-2024 19:43 | 1118970 | ||
| RIXA2_TS_DEWT_052019.nc | 27-Oct-2024 19:43 | 1003327 | ||
| RIXA2_TS_DEWT_052020.nc | 27-Oct-2024 19:43 | 4007820 | ||
| RIXA2_TS_DEWT_052021.nc | 27-Oct-2024 19:43 | 1114882 | ||
| RIXA2_TS_DEWT_052022.nc | 27-Oct-2024 19:43 | 988192 | ||
| RIXA2_TS_DEWT_052023.nc | 27-Oct-2024 19:44 | 1268669 | ||
| RIXA2_TS_DEWT_052025.nc | 01-Jun-2025 09:28 | 1269721 | ||
| RIXA2_TS_DEWT_062018.nc | 27-Oct-2024 19:44 | 4424745 | ||
| RIXA2_TS_DEWT_062019.nc | 27-Oct-2024 19:44 | 1019693 | ||
| RIXA2_TS_DEWT_062020.nc | 27-Oct-2024 19:44 | 467625 | ||
| RIXA2_TS_DEWT_062021.nc | 27-Oct-2024 19:44 | 987816 | ||
| RIXA2_TS_DEWT_062022.nc | 27-Oct-2024 19:44 | 1109412 | ||
| RIXA2_TS_DEWT_062023.nc | 27-Oct-2024 19:44 | 5844855 | ||
| RIXA2_TS_DEWT_062025.nc | 01-Jul-2025 07:04 | 461815 | ||
| RIXA2_TS_DEWT_072018.nc | 27-Oct-2024 19:44 | 629363 | ||
| RIXA2_TS_DEWT_072019.nc | 27-Oct-2024 19:44 | 644640 | ||
| RIXA2_TS_DEWT_072020.nc | 27-Oct-2024 19:44 | 461840 | ||
| RIXA2_TS_DEWT_072021.nc | 27-Oct-2024 19:44 | 3047760 | ||
| RIXA2_TS_DEWT_072022.nc | 27-Oct-2024 19:44 | 429676 | ||
| RIXA2_TS_DEWT_072023.nc | 27-Oct-2024 19:44 | 429564 | ||
| RIXA2_TS_DEWT_072025.nc | 01-Aug-2025 07:28 | 429266 | ||
| RIXA2_TS_DEWT_082018.nc | 27-Oct-2024 19:45 | 430322 | ||
| RIXA2_TS_DEWT_082019.nc | 27-Oct-2024 19:45 | 587897 | ||
| RIXA2_TS_DEWT_082020.nc | 27-Oct-2024 19:45 | 440361 | ||
| RIXA2_TS_DEWT_082021.nc | 27-Oct-2024 19:45 | 587882 | ||
| RIXA2_TS_DEWT_082022.nc | 27-Oct-2024 19:45 | 439374 | ||
| RIXA2_TS_DEWT_082023.nc | 27-Oct-2024 19:45 | 588740 | ||
| RIXA2_TS_DEWT_082025.nc | 01-Sep-2025 08:39 | 587985 | ||
| RIXA2_TS_DEWT_092018.nc | 27-Oct-2024 19:45 | 440021 | ||
| RIXA2_TS_DEWT_092019.nc | 27-Oct-2024 19:45 | 433434 | ||
| RIXA2_TS_DEWT_092020.nc | 27-Oct-2024 19:45 | 588182 | ||
| RIXA2_TS_DEWT_092021.nc | 27-Oct-2024 19:45 | 439753 | ||
| RIXA2_TS_DEWT_092022.nc | 27-Oct-2024 19:45 | 440324 | ||
| RIXA2_TS_DEWT_092023.nc | 27-Oct-2024 19:45 | 418855 | ||
| RIXA2_TS_DEWT_092025.nc | 01-Oct-2025 09:05 | 588066 | ||
| RIXA2_TS_DEWT_102018.nc | 27-Oct-2024 19:45 | 435538 | ||
| RIXA2_TS_DEWT_102019.nc | 27-Oct-2024 19:45 | 588042 | ||
| RIXA2_TS_DEWT_102020.nc | 27-Oct-2024 19:45 | 587886 | ||
| RIXA2_TS_DEWT_102021.nc | 27-Oct-2024 19:46 | 428785 | ||
| RIXA2_TS_DEWT_102022.nc | 27-Oct-2024 19:46 | 428612 | ||
| RIXA2_TS_DEWT_102023.nc | 27-Oct-2024 19:46 | 428636 | ||
| RIXA2_TS_DEWT_102025.nc | 01-Nov-2025 08:34 | 439050 | ||
| RIXA2_TS_DEWT_112018.nc | 27-Oct-2024 19:46 | 438657 | ||
| RIXA2_TS_DEWT_112019.nc | 27-Oct-2024 19:46 | 438491 | ||
| RIXA2_TS_DEWT_112020.nc | 27-Oct-2024 19:46 | 438319 | ||
| RIXA2_TS_DEWT_112021.nc | 27-Oct-2024 19:46 | 438493 | ||
| RIXA2_TS_DEWT_112022.nc | 27-Oct-2024 19:46 | 439120 | ||
| RIXA2_TS_DEWT_112023.nc | 27-Oct-2024 19:46 | 438696 | ||
| RIXA2_TS_DEWT_112024.nc | 17-Jan-2025 19:40 | 438733 | ||
| RIXA2_TS_DEWT_112025.nc | 01-Dec-2025 12:39 | 438493 | ||
| RIXA2_TS_DEWT_122017.nc | 27-Oct-2024 19:46 | 438188 | ||
| RIXA2_TS_DEWT_122018.nc | 27-Oct-2024 19:46 | 438747 | ||
| RIXA2_TS_DEWT_122019.nc | 27-Oct-2024 19:46 | 432521 | ||
| RIXA2_TS_DEWT_122020.nc | 27-Oct-2024 19:46 | 438774 | ||
| RIXA2_TS_DEWT_122021.nc | 27-Oct-2024 19:46 | 438800 | ||
| RIXA2_TS_DEWT_122022.nc | 27-Oct-2024 19:47 | 438809 | ||
| RIXA2_TS_DEWT_122023.nc | 27-Oct-2024 19:47 | 419674 | ||
| RIXA2_TS_DEWT_122024.nc | 22-Jan-2025 19:43 | 429710 | ||
| RIXA2_TS_DEWT_122025.nc | 01-Jan-2026 04:23 | 429494 | ||